THORAD AGENA D DEB, 4645

Orbit data source: Space-Track

THORAD AGENA D DEB, 4645 is space debris in SSO originally from a launch on Wed, 08 Apr 1970 UTC launched from the Air Force Western Test Range (AFWTR). Debris objects in space refer to the collection of defunct objects orbiting the Earth. Examples of debris include non-operational satellites, rocket bodies, and fragments generated from explosions, collisions, or faulty payload assembly.

Loading next visibility...
Identifier
4645, 1970-025AD
Orbit
SSO
Country
Flag of USUS
Related business
Manufacturer
Unknown
Mission
Spacecraft
Bus & Motor
Unknown
Mass
Unknown
Launch date (UTC)
1970-04-08 (56 years ago)
Launch vehicle
Unknown
Launch site
Air Force Western Test Range (AFWTR)
Object type
Payload
Rocket body
Debris
Shape & HBR
Unknown shape, 0.1 m
Radar Cross Section
Small (<0.1 m²)

Expand to show TLE details & history
Last TLE update: 3 hours ago

TLE from 3 hours ago
0 THORAD AGENA D DEB
1  4645U 70025AD  26034.15944969  .00000069  00000-0  33638-3 0  9996
2  4645  99.9094  99.1591 0329581 181.5689 211.4769 12.86598928618194
Epoch: 2026-02-03T03:49Z
TLE epoch observation values (Epoch: 2026-02-03T03:49:36.453Z)
Latitude
30.67526°
Longitude
-97.50627°
Altitude
1,537.208 km
Speed
6.999 km/s
True Right ascension
06h 12m 57s
True Declination
30° 32' 22"
Sunlit
Object was in full shadow at epoch
Visualization orbit readout
Latitude
Unknown
Longitude
Unknown
Altitude
Unknown
Speed
Unknown
Apparent Right ascension
Unknown
Apparent Declination
Unknown
Sunlit
N/A
Visualization observer readout
Local Sidereal Time
08:42:56
Azimuth
Unknown
Elevation
Unknown
Doppler factor
Unknown
Orbital elements
Apogee altitude
1,565.912 km
Perigee altitude
1,058.978 km
Semi-major axis
7,690.582 km
Eccentricity
0.03296
Inclination
99.9094°
RAAN
99.1591°
Arg. of periapsis
181.5689°
True anomaly
209.57224°
Mean anomaly
211.4769°
Eccentric anomaly
210.51797°
Mean motion
3.21814 °/min
Orbital period
111.87 mins
BSTAR
0.00033638

Documentation

Showing up to 5 results
|